�������l�o���
Date,Time,MP-1(��Sv/h),MP-2(��Sv/h),MP-3(��Sv/h),MP-4(��Sv/h),MP-5(��Sv/h),MP-6(��Sv/h),MP-7(��Sv/h),MP-8(��Sv/h),����,����(m/s),���J
2019/03/30,00:00,0.786,1.162,0.798,1.479,1.075,0.443,0.786,0.743,�k�k��,0.9,�L
2019/03/30,00:10,0.787,1.163,0.800,1.477,1.076,0.443,0.784,0.742,�k,1.2,�L
2019/03/30,00:20,0.785,1.161,0.797,1.480,1.073,0.443,0.786,0.743,�k�k��,1.7,�L
2019/03/30,00:30,0.787,1.163,0.798,1.483,1.073,0.443,0.785,0.742,�k�k��,2.8,�L
2019/03/30,00:40,0.787,1.161,0.798,1.484,1.076,0.442,0.787,0.744,�k�k��,3.2,�L
2019/03/30,00:50,0.788,1.163,0.798,1.483,1.075,0.443,0.785,0.742,�k�k��,4.6,�L
2019/03/30,01:00,0.788,1.163,0.798,1.483,1.076,0.442,0.785,0.745,�k��,5.9,�L
2019/03/30,01:10,0.787,1.161,0.797,1.481,1.073,0.442,0.786,0.741,�k��,5.9,�L
2019/03/30,01:20,0.788,1.158,0.799,1.480,1.075,0.442,0.786,0.743,�k�k��,4.7,�L
2019/03/30,01:30,0.787,1.158,0.799,1.479,1.071,0.441,0.785,0.744,�k�k��,4.7,�L
2019/03/30,01:40,0.787,1.158,0.798,1.482,1.067,0.442,0.786,0.743,�k�k��,4.9,�L
2019/03/30,01:50,0.785,1.154,0.795,1.477,1.070,0.442,0.786,0.745,�k��,5.3,�L
2019/03/30,02:00,0.783,1.150,0.794,1.473,1.066,0.441,0.784,0.741,�k�k��,4.9,�L
2019/03/30,02:10,0.783,1.148,0.794,1.473,1.062,0.440,0.784,0.739,�k�k��,4.6,�L
2019/03/30,02:20,0.778,1.147,0.792,1.473,1.061,0.442,0.784,0.741,�k�k��,4.4,�L
2019/03/30,02:30,0.778,1.146,0.793,1.470,1.060,0.441,0.782,0.739,�k�k��,4.2,�L
2019/03/30,02:40,0.780,1.146,0.790,1.472,1.060,0.441,0.782,0.741,�k��,4.4,�L
2019/03/30,02:50,0.778,1.144,0.793,1.470,1.060,0.440,0.782,0.739,�k��,4.4,�L
2019/03/30,03:00,0.777,1.145,0.790,1.469,1.059,0.440,0.783,0.741,�k�k��,4.6,�L
2019/03/30,03:10,0.778,1.143,0.790,1.469,1.056,0.441,0.780,0.740,�k�k��,5.4,�L
2019/03/30,03:20,0.777,1.142,0.790,1.469,1.058,0.440,0.784,0.741,�k�k��,5.0,�L
2019/03/30,03:30,0.779,1.142,0.789,1.470,1.059,0.440,0.782,0.739,�k�k��,5.3,�L
2019/03/30,03:40,0.777,1.141,0.789,1.466,1.056,0.440,0.783,0.741,�k�k��,5.0,�L
2019/03/30,03:50,0.777,1.140,0.789,1.468,1.058,0.439,0.782,0.741,�k�k��,4.7,�L
2019/03/30,04:00,0.773,1.136,0.790,1.466,1.054,0.440,0.781,0.740,�k�k��,5.3,�L
2019/03/30,04:10,0.775,1.134,0.788,1.467,1.053,0.440,0.782,0.739,�k�k��,4.8,�L
2019/03/30,04:20,0.773,1.134,0.787,1.466,1.053,0.440,0.782,0.740,�k�k��,4.7,�L
2019/03/30,04:30,0.772,1.133,0.784,1.463,1.050,0.438,0.779,0.739,�k��,4.5,�L
2019/03/30,04:40,0.774,1.133,0.785,1.461,1.049,0.438,0.778,0.737,�k��,3.9,�L
2019/03/30,04:50,0.771,1.133,0.784,1.460,1.048,0.439,0.779,0.737,�k��,4.0,�L
2019/03/30,05:00,0.771,1.132,0.785,1.462,1.049,0.439,0.777,0.736,�k��,3.7,�L
2019/03/30,05:10,0.772,1.130,0.784,1.457,1.048,0.438,0.777,0.738,�k�k��,4.3,�L
2019/03/30,05:20,0.771,1.129,0.783,1.460,1.046,0.435,0.779,0.736,�k��,4.2,�L
2019/03/30,05:30,0.771,1.129,0.783,1.457,1.047,0.438,0.778,0.737,�k��,4.5,�L
2019/03/30,05:40,0.770,1.128,0.780,1.457,1.046,0.438,0.779,0.737,�k�k��,4.4,�L
2019/03/30,05:50,0.770,1.129,0.782,1.456,1.048,0.438,0.777,0.739,�k�k��,4.8,�L
2019/03/30,06:00,0.768,1.126,0.783,1.458,1.046,0.437,0.778,0.736,�k��,4.9,�L
2019/03/30,06:10,0.769,1.127,0.782,1.457,1.047,0.437,0.778,0.736,�k�k��,5.0,�L
2019/03/30,06:20,0.769,1.127,0.784,1.454,1.044,0.437,0.778,0.737,�k�k��,4.9,�L
2019/03/30,06:30,0.767,1.126,0.782,1.458,1.045,0.436,0.776,0.736,�k�k��,4.4,��
2019/03/30,06:40,0.766,1.126,0.782,1.457,1.045,0.434,0.779,0.737,�k�k��,4.4,�L
2019/03/30,06:50,0.770,1.125,0.782,1.455,1.047,0.437,0.777,0.737,�k��,3.7,��
2019/03/30,07:00,0.769,1.126,0.780,1.457,1.046,0.436,0.779,0.736,�k��,4.0,��
2019/03/30,07:10,0.770,1.126,0.783,1.456,1.047,0.436,0.779,0.737,�k�k��,3.7,��
2019/03/30,07:20,0.769,1.125,0.780,1.457,1.045,0.437,0.778,0.736,�k�k��,4.2,��
2019/03/30,07:30,0.771,1.124,0.782,1.457,1.045,0.436,0.779,0.737,�k�k��,4.5,��
2019/03/30,07:40,0.770,1.126,0.781,1.453,1.045,0.436,0.778,0.736,�k�k��,4.4,��
2019/03/30,07:50,0.769,1.125,0.781,1.454,1.045,0.436,0.779,0.736,�k�k��,4.1,��
2019/03/30,08:00,0.769,1.128,0.781,1.455,1.044,0.437,0.779,0.738,�k�k��,4.3,��
2019/03/30,08:10,0.769,1.125,0.781,1.457,1.045,0.436,0.779,0.737,�k�k��,3.3,��
2019/03/30,08:20,0.769,1.128,0.783,1.456,1.046,0.437,0.778,0.738,�k��,3.7,��
2019/03/30,08:30,0.769,1.126,0.782,1.457,1.044,0.437,0.778,0.737,�k�k��,3.4,�L
2019/03/30,08:40,0.770,1.128,0.781,1.456,1.045,0.436,0.780,0.738,�k�k��,3.4,��
2019/03/30,08:50,0.771,1.125,0.782,1.455,1.046,0.437,0.778,0.737,�k�k��,3.5,�L
2019/03/30,09:00,0.771,1.126,0.780,1.455,1.046,0.437,0.778,0.736,�k��,3.5,�L
2019/03/30,09:10,0.769,1.122,0.780,1.456,1.044,0.436,0.776,0.737,�k�k��,3.1,�L
2019/03/30,09:20,0.769,1.122,0.779,1.455,1.044,0.436,0.779,0.736,�k�k��,3.9,�L
2019/03/30,09:30,0.769,1.122,0.781,1.453,1.043,0.435,0.777,0.736,�k��,3.7,�L
2019/03/30,09:40,0.769,1.122,0.781,1.454,1.043,0.436,0.778,0.738,�k��,3.8,��
2019/03/30,09:50,0.767,1.120,0.780,1.451,1.044,0.436,0.778,0.736,�k��,4.2,�L
2019/03/30,10:00,0.766,1.121,0.779,1.454,1.042,0.437,0.778,0.737,�k��,3.7,�L
2019/03/30,10:10,0.768,1.121,0.779,1.454,1.042,0.436,0.779,0.737,�k��,3.0,�L
2019/03/30,10:20,0.767,1.122,0.780,1.454,1.042,0.436,0.778,0.736,�k��,2.8,��
2019/03/30,10:30,0.767,1.118,0.779,1.452,1.044,0.436,0.777,0.736,�k��,3.4,��
2019/03/30,10:40,0.767,1.119,0.780,1.455,1.040,0.435,0.778,0.735,�k��,3.7,��
2019/03/30,10:50,0.767,1.118,0.780,1.456,1.042,0.435,0.778,0.736,�k�k��,2.3,��
2019/03/30,11:00,0.767,1.119,0.780,1.454,1.042,0.436,0.777,0.735,�k�k��,4.0,�L
2019/03/30,11:10,0.768,1.121,0.780,1.453,1.041,0.435,0.779,0.738,�k��,3.4,�L
2019/03/30,11:20,0.766,1.121,0.778,1.455,1.042,0.436,0.779,0.735,�k�k��,4.3,�L
2019/03/30,11:30,0.769,1.124,0.779,1.456,1.044,0.437,0.777,0.736,�k�k��,4.3,�L
2019/03/30,11:40,0.769,1.121,0.778,1.455,1.043,0.437,0.779,0.736,�k�k��,4.7,�L
2019/03/30,11:50,0.766,1.122,0.781,1.453,1.043,0.436,0.778,0.737,�k��,4.7,�L
2019/03/30,12:00,0.767,1.118,0.778,1.454,1.039,0.437,0.778,0.737,�k��,5.0,�L
2019/03/30,12:10,0.765,1.113,0.778,1.453,1.037,0.437,0.777,0.737,�k��,5.0,�L
2019/03/30,12:20,0.765,1.113,0.777,1.448,1.036,0.437,0.778,0.735,�k�k��,2.6,�L
2019/03/30,12:30,0.763,1.112,0.776,1.448,1.036,0.436,0.777,0.736,�k�k��,4.0,�L
2019/03/30,12:40,0.763,1.110,0.774,1.447,1.036,0.436,0.778,0.734,�k�k��,3.7,�L
2019/03/30,12:50,0.763,1.109,0.775,1.446,1.034,0.437,0.776,0.736,�k�k��,3.9,�L
2019/03/30,13:00,0.765,1.111,0.774,1.448,1.035,0.437,0.777,0.735,�k�k��,4.2,�L
2019/03/30,13:10,0.763,1.110,0.777,1.447,1.037,0.438,0.776,0.735,�k�k��,4.8,�L
2019/03/30,13:20,0.764,1.106,0.774,1.445,1.035,0.437,0.777,0.736,�k�k��,4.0,�L
2019/03/30,13:30,0.763,1.109,0.776,1.445,1.036,0.437,0.776,0.736,�k�k��,4.8,�L
2019/03/30,13:40,0.763,1.112,0.772,1.444,1.033,0.437,0.776,0.736,�k�k��,5.4,�L
2019/03/30,13:50,0.763,1.109,0.775,1.444,1.033,0.436,0.775,0.736,�k�k��,4.5,�L
2019/03/30,14:00,0.762,1.108,0.775,1.445,1.036,0.436,0.777,0.736,�k�k��,3.9,�L
2019/03/30,14:10,0.763,1.108,0.774,1.445,1.033,0.436,0.777,0.735,�k��,5.1,�L
2019/03/30,14:20,0.761,1.110,0.774,1.445,1.032,0.437,0.777,0.737,�k��,5.3,�L
2019/03/30,14:30,0.761,1.108,0.775,1.446,1.034,0.435,0.776,0.737,�k��,4.9,�L
2019/03/30,14:40,0.762,1.110,0.774,1.444,1.033,0.436,0.778,0.734,�k��,5.8,�L
2019/03/30,14:50,0.762,1.110,0.773,1.447,1.032,0.436,0.778,0.735,�k��,5.6,�L
2019/03/30,15:00,0.763,1.108,0.773,1.444,1.033,0.436,0.778,0.736,�k��,6.1,�L
2019/03/30,15:10,0.761,1.109,0.777,1.444,1.033,0.435,0.776,0.736,�k��,5.9,�L
2019/03/30,15:20,0.761,1.110,0.775,1.445,1.032,0.435,0.776,0.733,�k��,6.0,�L
2019/03/30,15:30,0.760,1.110,0.773,1.445,1.033,0.436,0.777,0.735,�k��,5.6,�L
2019/03/30,15:40,0.762,1.110,0.774,1.446,1.033,0.437,0.777,0.736,�k��,6.4,�L
2019/03/30,15:50,0.761,1.109,0.774,1.441,1.034,0.435,0.777,0.736,�k��,6.8,�L
2019/03/30,16:00,0.760,1.108,0.774,1.443,1.032,0.433,0.774,0.734,�k��,7.9,�L
2019/03/30,16:10,0.761,1.111,0.774,1.445,1.033,0.435,0.779,0.734,�k��,6.8,�L
2019/03/30,16:20,0.761,1.110,0.773,1.443,1.031,0.435,0.778,0.735,�k��,6.7,�L
2019/03/30,16:30,0.760,1.108,0.772,1.445,1.033,0.435,0.777,0.738,�k��,7.2,�L
2019/03/30,16:40,0.761,1.112,0.773,1.445,1.034,0.436,0.777,0.735,�k��,6.4,�L
2019/03/30,16:50,0.762,1.112,0.775,1.441,1.030,0.437,0.778,0.735,�k��,6.9,�L
2019/03/30,17:00,0.763,1.111,0.772,1.444,1.034,0.437,0.777,0.736,�k��,7.1,�L
2019/03/30,17:10,0.761,1.112,0.773,1.446,1.033,0.436,0.780,0.736,�k��,6.4,�L
2019/03/30,17:20,0.759,1.109,0.775,1.445,1.033,0.435,0.778,0.736,�k�k��,6.5,�L
2019/03/30,17:30,0.762,1.109,0.774,1.443,1.033,0.436,0.777,0.737,�k�k��,6.9,�L
2019/03/30,17:40,0.762,1.109,0.776,1.444,1.033,0.435,0.776,0.737,�k�k��,8.2,�L
2019/03/30,17:50,0.763,1.111,0.773,1.444,1.033,0.436,0.779,0.737,�k��,8.0,�L
2019/03/30,18:00,0.761,1.109,0.774,1.444,1.032,0.434,0.777,0.735,�k��,8.0,�L
2019/03/30,18:10,0.761,1.107,0.772,1.444,1.033,0.435,0.778,0.735,�k��,7.3,�L
2019/03/30,18:20,0.760,1.110,0.773,1.444,1.031,0.435,0.777,0.734,�k��,8.7,�L
2019/03/30,18:30,0.761,1.111,0.772,1.441,1.032,0.436,0.777,0.735,�k��,6.9,�L
2019/03/30,18:40,0.761,1.110,0.775,1.444,1.034,0.436,0.778,0.737,�k��,9.1,�L
2019/03/30,18:50,0.761,1.109,0.774,1.441,1.032,0.435,0.778,0.737,�k��,12.4,�L
2019/03/30,19:00,0.756,1.099,0.769,1.431,1.021,0.433,0.773,0.733,�k��,8.8,�L
2019/03/30,19:10,0.753,1.095,0.765,1.420,1.015,0.435,0.771,0.732,�k��,6.7,�L
2019/03/30,19:20,0.750,1.088,0.766,1.413,1.012,0.433,0.768,0.730,�k�k��,7.1,�L
2019/03/30,19:30,0.753,1.092,0.769,1.413,1.014,0.435,0.769,0.730,�k�k��,6.0,�L
2019/03/30,19:40,0.752,1.091,0.767,1.414,1.015,0.434,0.769,0.732,�k�k��,7.6,�L
2019/03/30,19:50,0.753,1.093,0.766,1.415,1.018,0.435,0.770,0.733,�k�k��,8.2,��
2019/03/30,20:00,0.753,1.094,0.767,1.416,1.018,0.435,0.773,0.730,�k�k��,7.8,��
2019/03/30,20:10,0.752,1.095,0.766,1.413,1.018,0.433,0.773,0.732,�k�k��,8.1,��
2019/03/30,20:20,0.753,1.097,0.766,1.415,1.017,0.433,0.772,0.732,�k�k��,9.2,��
2019/03/30,20:30,0.754,1.096,0.764,1.415,1.016,0.433,0.772,0.731,�k�k��,8.4,��
2019/03/30,20:40,0.753,1.097,0.765,1.415,1.017,0.433,0.769,0.730,�k,7.0,��
2019/03/30,20:50,0.752,1.099,0.765,1.412,1.017,0.433,0.770,0.732,�k�k��,8.5,��
2019/03/30,21:00,0.752,1.096,0.764,1.413,1.016,0.432,0.771,0.731,�k�k��,9.8,��
2019/03/30,21:10,0.754,1.096,0.764,1.415,1.016,0.432,0.771,0.731,�k�k��,10.1,��
2019/03/30,21:20,0.751,1.097,0.764,1.411,1.017,0.433,0.771,0.733,�k�k��,9.4,��
2019/03/30,21:30,0.752,1.097,0.761,1.415,1.018,0.430,0.770,0.730,�k�k��,7.9,��
2019/03/30,21:40,0.752,1.097,0.764,1.412,1.017,0.429,0.770,0.730,�k�k��,8.2,��
2019/03/30,21:50,0.750,1.096,0.762,1.413,1.016,0.432,0.772,0.731,�k�k��,6.7,��
2019/03/30,22:00,0.751,1.096,0.763,1.414,1.017,0.431,0.770,0.730,�k�k��,8.2,��
2019/03/30,22:10,0.752,1.096,0.763,1.412,1.015,0.431,0.773,0.731,�k�k��,7.8,�L
2019/03/30,22:20,0.750,1.096,0.762,1.415,1.018,0.431,0.772,0.730,�k�k��,7.9,�L
2019/03/30,22:30,0.751,1.097,0.764,1.413,1.018,0.431,0.771,0.729,�k�k��,6.8,�L
2019/03/30,22:40,0.752,1.097,0.764,1.414,1.016,0.431,0.771,0.732,�k�k��,6.5,�L
2019/03/30,22:50,0.754,1.097,0.765,1.416,1.015,0.430,0.772,0.731,�k��,5.2,�L
2019/03/30,23:00,0.751,1.098,0.765,1.414,1.017,0.432,0.771,0.732,�k��,5.0,�L
2019/03/30,23:10,0.752,1.099,0.763,1.413,1.018,0.432,0.770,0.731,�k��,4.5,�L
2019/03/30,23:20,0.752,1.098,0.766,1.415,1.017,0.431,0.773,0.731,�k��,5.4,�L
2019/03/30,23:30,0.752,1.098,0.764,1.414,1.016,0.432,0.772,0.733,�k�k��,5.7,�L
2019/03/30,23:40,0.753,1.098,0.763,1.415,1.018,0.432,0.770,0.731,�k��,5.3,�L
2019/03/30,23:50,0.755,1.101,0.764,1.416,1.016,0.433,0.770,0.731,�k��,5.3,�L
